| time (UTC) | temp F | wind direction | speed MPH | gust MPH | rain 1hr in | rain 24hr in | rain mn in | humidity % | barometer mb |
| 20260503021903 | 40 | 270 | 0.0 | 6.0 | 0.00 | 0.00 | 0.00 | 1017.6 | |
| 20260503021403 | 40 | 269 | 0.0 | 6.0 | 0.00 | 0.00 | 0.00 | 1018.3 | |
| 20260503020903 | 40 | 202 | 0.0 | 4.0 | 0.00 | 0.00 | 0.00 | 1018.0 | |
| 20260503020403 | 40 | 203 | 0.0 | 0.0 | 0.00 | 0.00 | 0.00 | 1018.0 | |
| 20260503015903 | 41 | 203 | 0.0 | 0.0 | 0.00 | 0.00 | 0.00 | 1017.3 | |
| 20260503015402 | 41 | 248 | 0.0 | 4.0 | 0.00 | 0.00 | 0.00 | 1017.3 | |
| 20260503014903 | 41 | 246 | 0.0 | 4.0 | 0.00 | 0.00 | 0.00 | 1017.6 | |
| 20260503014403 | 41 | 248 | 0.0 | 2.0 | 0.00 | 0.00 | 0.00 | 1017.3 | |
| 20260503013903 | 42 | 248 | 0.0 | 3.0 | 0.00 | 0.00 | 0.00 | 1017.6 | |
| 20260503013403 | 42 | 338 | 0.0 | 5.0 | 0.00 | 0.00 | 0.00 | 1018.0 | |
| 20260503012903 | 43 | 294 | 0.0 | 5.0 | 0.00 | 0.00 | 0.00 | 1017.3 | |
| 20260503012402 | 43 | 283 | 0.0 | 3.0 | 0.00 | 0.00 | 0.00 | 1017.6 | |
| 20260503011903 | 43 | 337 | 0.0 | 7.0 | 0.00 | 0.00 | 0.00 | 1017.3 | |
| 20260503011424 | 44 | 349 | 0.0 | 7.0 | 0.00 | 0.00 | 0.00 | 1017.6 | |
| 20260503010902 | 44 | 314 | 0.0 | 4.0 | 0.00 | 0.00 | 0.00 | 1017.3 | |
| 20260503010403 | 44 | 314 | 1.0 | 4.0 | 0.00 | 0.00 | 0.00 | 1017.6 | |
| 20260503005904 | 44 | 341 | 0.0 | 3.0 | 0.00 | 0.00 | 0.00 | 1017.6 | |
| 20260503005403 | 44 | 292 | 0.0 | 3.0 | 0.00 | 0.00 | 0.00 | 1017.6 | |
| 20260503004903 | 44 | 324 | 0.0 | 2.0 | 0.00 | 0.00 | 0.00 | 1017.3 | |
| 20260503004402 | 45 | 337 | 0.0 | 3.0 | 0.00 | 0.00 | 0.00 | 1017.6 | |
| 20260503003903 | 45 | 324 | 0.0 | 3.0 | 0.00 | 0.00 | 0.00 | 1017.3 | |
| 20260503003402 | 45 | 10 | 1.0 | 3.0 | 0.00 | 0.00 | 0.00 | 1017.6 | |
| 20260503002903 | 45 | 5 | 0.0 | 7.0 | 0.00 | 0.00 | 0.00 | 1017.3 | |
| 20260503002403 | 46 | 348 | 1.0 | 8.0 | 0.00 | 0.00 | 0.00 | 1017.6 | |
| 20260503001903 | 46 | 352 | 3.0 | 8.0 | 0.00 | 0.00 | 0.00 | 1017.6 | |
| 20260503001404 | 46 | 344 | 2.0 | 10.0 | 0.00 | 0.00 | 0.00 | 1017.3 | |
| 20260503000903 | 46 | 356 | 3.0 | 10.0 | 0.00 | 0.00 | 0.00 | 1017.6 | |
| 20260503000403 | 46 | 359 | 3.0 | 7.0 | 0.00 | 0.00 | 0.00 | 1017.6 | |
| 20260502235903 | 47 | 28 | 3.0 | 11.0 | 0.00 | 0.00 | 0.00 | 1017.0 | |
| 20260502235424 | 47 | 347 | 2.0 | 11.0 | 0.00 | 0.00 | 0.00 | 1017.3 | |
| 20260502234903 | 47 | 5 | 2.0 | 8.0 | 0.00 | 0.00 | 0.00 | 1017.6 | |
| 20260502234403 | 47 | 344 | 3.0 | 8.0 | 0.00 | 0.00 | 0.00 | 1017.0 | |
| 20260502233903 | 47 | 342 | 2.0 | 8.0 | 0.00 | 0.00 | 0.00 | 1017.0 | |
| 20260502233403 | 47 | 310 | 4.0 | 10.0 | 0.00 | 0.00 | 0.00 | 1017.6 | |
| 20260502232903 | 47 | 319 | 5.0 | 10.0 | 0.00 | 0.00 | 0.00 | 1017.0 | |
| 20260502232404 | 47 | 15 | 3.0 | 7.0 | 0.00 | 0.00 | 0.00 | 1017.3 | |
| 20260502231924 | 48 | 356 | 2.0 | 11.0 | 0.00 | 0.00 | 0.00 | 1017.3 | |
| 20260502231403 | 48 | 333 | 4.0 | 15.0 | 0.00 | 0.00 | 0.00 | 1017.0 | |
| 20260502230903 | 48 | 331 | 5.0 | 15.0 | 0.00 | 0.00 | 0.00 | 1017.0 | |
| 20260502230403 | 48 | 5 | 3.0 | 13.0 | 0.00 | 0.00 | 0.00 | 1016.6 | |
| 20260502225903 | 49 | 326 | 5.0 | 10.0 | 0.00 | 0.00 | 0.00 | 1016.3 | |
| 20260502225403 | 49 | 293 | 5.0 | 11.0 | 0.00 | 0.00 | 0.00 | 1016.6 | |
| 20260502224903 | 49 | 318 | 5.0 | 11.0 | 0.00 | 0.00 | 0.00 | 1016.6 | |
| 20260502224402 | 49 | 288 | 2.0 | 12.0 | 0.00 | 0.00 | 0.00 | 1017.0 | |
| 20260502223903 | 49 | 316 | 4.0 | 12.0 | 0.00 | 0.00 | 0.00 | 1016.3 | |
| 20260502222925 | 49 | 333 | 3.0 | 10.0 | 0.00 | 0.00 | 0.00 | 1016.3 | |
| 20260502222403 | 49 | 322 | 3.0 | 15.0 | 0.00 | 0.00 | 0.00 | 1017.0 | |
| 20260502221903 | 49 | 308 | 5.0 | 15.0 | 0.00 | 0.00 | 0.00 | 1017.0 | |
| 20260502221403 | 50 | 322 | 4.0 | 12.0 | 0.00 | 0.00 | 0.00 | 1016.6 | |
| 20260502220903 | 50 | 328 | 5.0 | 10.0 | 0.00 | 0.00 | 0.00 | 1016.6 | |
| 20260502220403 | 49 | 323 | 4.0 | 10.0 | 0.00 | 0.00 | 0.00 | 1016.6 | |
| 20260502215924 | 49 | 17 | 4.0 | 10.0 | 0.00 | 0.00 | 0.00 | 1016.0 | |
| 20260502215425 | 50 | 312 | 3.0 | 9.0 | 0.00 | 0.00 | 0.00 | 1016.6 | |
| 20260502214924 | 50 | 13 | 4.0 | 9.0 | 0.00 | 0.00 | 0.00 | 1017.0 | |
| 20260502214425 | 50 | 8 | 2.0 | 9.0 | 0.00 | 0.00 | 0.00 | 1016.6 | |
| 20260502213902 | 50 | 318 | 3.0 | 13.0 | 0.00 | 0.00 | 0.00 | 1016.3 | |
| 20260502213403 | 50 | 323 | 5.0 | 13.0 | 0.00 | 0.00 | 0.00 | 1016.6 | |
| 20260502212924 | 50 | 314 | 5.0 | 12.0 | 0.00 | 0.00 | 0.00 | 1016.6 | |
| 20260502212403 | 51 | 318 | 2.0 | 13.0 | 0.00 | 0.00 | 0.00 | 1016.6 | |
| 20260502211903 | 50 | 327 | 5.0 | 17.0 | 0.00 | 0.00 | 0.00 | 1016.6 | |
| 20260502211402 | 50 | 343 | 4.0 | 17.0 | 0.00 | 0.00 | 0.00 | 1017.0 | |
| 20260502210903 | 50 | 310 | 4.0 | 11.0 | 0.00 | 0.00 | 0.00 | 1016.6 | |
| 20260502210403 | 51 | 325 | 5.0 | 11.0 | 0.00 | 0.00 | 0.00 | 1016.0 | |
| 20260502205903 | 51 | 326 | 3.0 | 15.0 | 0.00 | 0.00 | 0.00 | 1016.6 | |
| 20260502205404 | 51 | 302 | 6.0 | 15.0 | 0.00 | 0.00 | 0.00 | 1016.3 | |
| 20260502204924 | 51 | 323 | 5.0 | 14.0 | 0.00 | 0.00 | 0.00 | 1016.3 | |
| 20260502204403 | 51 | 338 | 4.0 | 14.0 | 0.00 | 0.00 | 0.00 | 1016.6 | |
| 20260502203902 | 50 | 297 | 8.0 | 21.0 | 0.00 | 0.00 | 0.00 | 1016.6 | |
| 20260502203403 | 50 | 320 | 3.0 | 21.0 | 0.00 | 0.00 | 0.00 | 1016.6 | |
| 20260502202903 | 50 | 301 | 5.0 | 14.0 | 0.00 | 0.00 | 0.00 | 1017.0 | |
| 20260502202424 | 51 | 293 | 6.0 | 14.0 | 0.00 | 0.00 | 0.00 | 1016.6 | |
| 20260502201903 | 50 | 275 | 5.0 | 10.0 | 0.00 | 0.00 | 0.00 | 1017.0 | |
| 20260502201403 | 51 | 29 | 3.0 | 10.0 | 0.00 | 0.00 | 0.00 | 1016.6 | |
| 20260502200903 | 50 | 340 | 4.0 | 10.0 | 0.00 | 0.00 | 0.00 | 1016.3 | |
| 20260502200403 | 50 | 307 | 4.0 | 14.0 | 0.00 | 0.00 | 0.00 | 1016.6 | |
| 20260502195903 | 51 | 317 | 4.0 | 17.0 | 0.00 | 0.00 | 0.00 | 1016.6 | |
| 20260502195424 | 50 | 314 | 8.0 | 17.0 | 0.00 | 0.00 | 0.00 | 1016.3 | |
| 20260502194903 | 50 | 276 | 7.0 | 13.0 | 0.00 | 0.00 | 0.00 | 1017.0 | |
| 20260502194403 | 50 | 4 | 1.0 | 11.0 | 0.00 | 0.00 | 0.00 | 1016.6 | |
| 20260502193904 | 50 | 354 | 3.0 | 12.0 | 0.00 | 0.00 | 0.00 | 1017.0 | |
| 20260502193403 | 51 | 319 | 6.0 | 12.0 | 0.00 | 0.00 | 0.00 | 1017.3 | |
| 20260502192903 | 50 | 279 | 3.0 | 16.0 | 0.00 | 0.00 | 0.00 | 1016.6 | |
| 20260502192403 | 50 | 310 | 6.0 | 16.0 | 0.00 | 0.00 | 0.00 | 1017.0 | |
| 20260502191924 | 50 | 331 | 3.0 | 8.0 | 0.00 | 0.00 | 0.00 | 1016.6 | |
| 20260502191403 | 50 | 296 | 5.0 | 13.0 | 0.00 | 0.00 | 0.00 | 1016.6 | |
| 20260502190904 | 49 | 318 | 6.0 | 13.0 | 0.00 | 0.00 | 0.00 | 1016.6 | |
| 20260502190403 | 50 | 294 | 6.0 | 11.0 | 0.00 | 0.00 | 0.00 | 1016.6 | |
| 20260502185903 | 50 | 316 | 5.0 | 10.0 | 0.00 | 0.00 | 0.00 | 1017.0 | |
| 20260502185403 | 49 | 359 | 4.0 | 14.0 | 0.00 | 0.00 | 0.00 | 1017.3 | |
| 20260502184903 | 50 | 280 | 5.0 | 14.0 | 0.00 | 0.00 | 0.00 | 1016.6 | |
| 20260502184403 | 50 | 304 | 7.0 | 17.0 | 0.00 | 0.00 | 0.00 | 1017.3 | |
| 20260502183904 | 50 | 297 | 7.0 | 17.0 | 0.00 | 0.00 | 0.00 | 1017.0 | |
| 20260502183403 | 50 | 333 | 5.0 | 13.0 | 0.00 | 0.00 | 0.00 | 1017.3 | |
| 20260502182403 | 50 | 328 | 5.0 | 15.0 | 0.00 | 0.00 | 0.00 | 1017.0 | |
| 20260502181925 | 49 | 341 | 5.0 | 14.0 | 0.00 | 0.00 | 0.00 | 1017.3 | |
| 20260502181402 | 50 | 8 | 2.0 | 14.0 | 0.00 | 0.00 | 0.00 | 1017.3 | |
| 20260502180924 | 50 | 332 | 5.0 | 13.0 | 0.00 | 0.00 | 0.00 | 1017.3 | |
| 20260502180403 | 49 | 286 | 8.0 | 13.0 | 0.00 | 0.00 | 0.00 | 1017.0 | |
| 20260502170403 | 48 | 316 | 4.0 | 15.0 | 0.00 | 0.00 | 0.00 | 1017.3 | |
| 20260502163903 | 47 | 4 | 2.0 | 14.0 | 0.00 | 0.00 | 0.00 | 1017.0 | |
| 20260502163404 | 47 | 337 | 7.0 | 14.0 | 0.00 | 0.00 | 0.00 | 1017.6 | |
| 20260502162904 | 47 | 288 | 4.0 | 10.0 | 0.00 | 0.00 | 0.00 | 1017.6 | |
| 20260502162424 | 47 | 295 | 6.0 | 10.0 | 0.00 | 0.00 | 0.00 | 1018.0 | |
| 20260502161903 | 47 | 333 | 3.0 | 10.0 | 0.00 | 0.00 | 0.00 | 1017.6 | |
| 20260502161404 | 46 | 292 | 4.0 | 10.0 | 0.00 | 0.00 | 0.00 | 1018.0 | |
| 20260502160924 | 47 | 339 | 3.0 | 9.0 | 0.00 | 0.00 | 0.00 | 1018.3 | |
| 20260502160403 | 46 | 328 | 4.0 | 9.0 | 0.00 | 0.00 | 0.00 | 1018.0 | |
| 20260502151902 | 45 | 29 | 4.0 | 10.0 | 0.00 | 0.00 | 0.00 | 1017.3 | |
| 20260502151403 | 45 | 1 | 3.0 | 12.0 | 0.00 | 0.00 | 0.00 | 1017.3 | |
| 20260502150903 | 45 | 27 | 5.0 | 12.0 | 0.00 | 0.00 | 0.00 | 1017.0 | |
| 20260502150403 | 45 | 359 | 3.0 | 13.0 | 0.00 | 0.00 | 0.00 | 1017.3 | |
| 20260502130424 | 41 | 21 | 2.0 | 6.0 | 0.00 | 0.00 | 0.00 | 1017.0 | |
| 20260502123403 | 40 | 311 | 3.0 | 9.0 | 0.00 | 0.00 | 0.00 | 1017.0 | |
| 20260502122924 | 39 | 337 | 3.0 | 9.0 | 0.00 | 0.00 | 0.00 | 1016.6 | |
| 20260502122402 | 39 | 340 | 2.0 | 7.0 | 0.00 | 0.00 | 0.00 | 1017.0 | |
| 20260502121903 | 39 | 2 | 1.0 | 6.0 | 0.00 | 0.00 | 0.00 | 1016.6 | |
| 20260502121403 | 39 | 30 | 2.0 | 7.0 | 0.00 | 0.00 | 0.00 | 1016.6 | |
| 20260502120903 | 39 | 318 | 2.0 | 7.0 | 0.00 | 0.00 | 0.00 | 1016.6 | |
| 20260502120403 | 39 | 345 | 1.0 | 5.0 | 0.00 | 0.00 | 0.00 | 1016.6 | |
| 20260502115902 | 39 | 328 | 1.0 | 7.0 | 0.00 | 0.00 | 0.00 | 1016.6 | |
| 20260502115403 | 39 | 32 | 2.0 | 7.0 | 0.00 | 0.00 | 0.00 | 1016.3 | |
| 20260502114903 | 39 | 25 | 1.0 | 6.0 | 0.00 | 0.00 | 0.00 | 1016.6 | |
| 20260502114424 | 39 | 27 | 1.0 | 5.0 | 0.00 | 0.00 | 0.00 | 1017.0 | |
| 20260502113902 | 39 | 20 | 1.0 | 5.0 | 0.00 | 0.00 | 0.00 | 1016.6 | |
| 20260502113446 | 39 | 64 | 0.0 | 6.0 | 0.00 | 0.00 | 0.00 | 1016.3 | |
| 20260502112903 | 40 | 336 | 0.0 | 6.0 | 0.00 | 0.00 | 0.00 | 1016.6 | |
| 20260502112403 | 38 | 360 | 0.0 | 3.0 | 0.00 | 0.00 | 0.00 | 1016.3 | |
| 20260502111903 | 37 | 311 | 0.0 | 2.0 | 0.00 | 0.00 | 0.00 | 1016.3 | |
| 20260502111403 | 37 | 15 | 0.0 | 2.0 | 0.00 | 0.00 | 0.00 | 1016.3 | |
| 20260502110925 | 37 | 22 | 0.0 | 6.0 | 0.00 | 0.00 | 0.00 | 1016.0 | |
| 20260502110403 | 36 | 25 | 0.0 | 6.0 | 0.00 | 0.00 | 0.00 | 1016.6 | |
| 20260502105924 | 36 | 68 | 0.0 | 6.0 | 0.00 | 0.00 | 0.00 | 1016.6 | |
| 20260502105424 | 36 | 24 | 0.0 | 6.0 | 0.00 | 0.00 | 0.00 | 1016.3 | |
| 20260502104902 | 36 | 334 | 0.0 | 3.0 | 0.00 | 0.00 | 0.00 | 1016.3 | |
| 20260502104403 | 36 | 27 | 1.0 | 4.0 | 0.00 | 0.00 | 0.00 | 1016.3 | |
| 20260502103903 | 36 | 43 | 0.0 | 6.0 | 0.00 | 0.00 | 0.00 | 1016.0 | |
| 20260502103403 | 36 | 358 | 0.0 | 6.0 | 0.00 | 0.00 | 0.00 | 1016.3 | |
| 20260502102923 | 37 | 39 | 0.0 | 6.0 | 0.00 | 0.00 | 0.00 | 1016.3 | |
| 20260502102404 | 37 | 19 | 0.0 | 6.0 | 0.00 | 0.00 | 0.00 | 1016.0 | |
| 20260502101925 | 37 | 68 | 0.0 | 4.0 | 0.00 | 0.00 | 0.00 | 1016.6 | |
| 20260502101403 | 37 | 337 | 0.0 | 5.0 | 0.00 | 0.00 | 0.00 | 1016.6 | |
| 20260502100902 | 38 | 4 | 0.0 | 5.0 | 0.00 | 0.00 | 0.00 | 1016.6 | |
| 20260502091403 | 39 | 272 | 0.0 | 6.0 | 0.00 | 0.00 | 0.00 | 1016.0 | |
| 20260502090902 | 39 | 314 | 0.0 | 6.0 | 0.00 | 0.00 | 0.00 | 1016.3 | |
| 20260502090403 | 39 | 333 | 0.0 | 6.0 | 0.00 | 0.00 | 0.00 | 1016.0 | |
| 20260502071403 | 40 | 9 | 0.0 | 5.0 | 0.00 | 0.00 | 0.00 | 1016.3 | |
| 20260502070903 | 40 | 293 | 0.0 | 6.0 | 0.00 | 0.00 | 0.00 | 1016.0 | |
| 20260502070403 | 39 | 313 | 0.0 | 6.0 | 0.00 | 0.00 | 0.00 | 1015.6 | |
| 20260502065924 | 39 | 292 | 0.0 | 4.0 | 0.00 | 0.00 | 0.00 | 1016.3 | |
| 20260502065424 | 39 | 269 | 0.0 | 5.0 | 0.00 | 0.00 | 0.00 | 1016.0 | |
| 20260502064902 | 39 | 295 | 0.0 | 5.0 | 0.00 | 0.00 | 0.00 | 1016.0 | |
| 20260502064403 | 39 | 302 | 0.0 | 3.0 | 0.00 | 0.00 | 0.00 | 1016.0 | |
| 20260502063902 | 39 | 247 | 0.0 | 3.0 | 0.00 | 0.00 | 0.00 | 1016.6 | |
| 20260502063424 | 39 | 269 | 0.0 | 3.0 | 0.00 | 0.00 | 0.00 | 1016.6 | |
| 20260502062902 | 39 | 281 | 0.0 | 3.0 | 0.00 | 0.00 | 0.00 | 1016.6 | |
| 20260502062424 | 39 | 252 | 0.0 | 3.0 | 0.00 | 0.00 | 0.00 | 1016.3 | |
| 20260502061924 | 39 | 265 | 0.0 | 3.0 | 0.00 | 0.00 | 0.00 | 1016.3 | |
| 20260502061403 | 39 | 242 | 0.0 | 3.0 | 0.00 | 0.00 | 0.00 | 1017.0 | |
| 20260502060903 | 39 | 227 | 0.0 | 3.0 | 0.00 | 0.00 | 0.00 | 1016.6 | |
| 20260502060403 | 39 | 285 | 0.0 | 3.0 | 0.00 | 0.00 | 0.00 | 1017.0 | |
| 20260502055903 | 39 | 247 | 0.0 | 6.0 | 0.00 | 0.00 | 0.00 | 1017.0 | |
| 20260502055403 | 40 | 21 | 0.0 | 6.0 | 0.00 | 0.00 | 0.00 | 1016.6 | |
| 20260502054903 | 40 | 45 | 0.0 | 7.0 | 0.00 | 0.00 | 0.00 | 1016.6 | |
| 20260502054403 | 40 | 350 | 1.0 | 7.0 | 0.00 | 0.00 | 0.00 | 1016.3 | |
| 20260502053903 | 40 | 23 | 0.0 | 2.0 | 0.00 | 0.00 | 0.00 | 1016.6 | |
| 20260502053404 | 40 | 327 | 0.0 | 6.0 | 0.00 | 0.00 | 0.00 | 1016.3 | |
| 20260502052903 | 40 | 261 | 0.0 | 6.0 | 0.00 | 0.00 | 0.00 | 1016.3 | |
| 20260502052403 | 40 | 322 | 0.0 | 6.0 | 0.00 | 0.00 | 0.00 | 1016.3 | |
| 20260502051923 | 40 | 352 | 0.0 | 6.0 | 0.00 | 0.00 | 0.00 | 1016.6 | |
| 20260502051424 | 40 | 347 | 0.0 | 6.0 | 0.00 | 0.00 | 0.00 | 1017.0 | |
| 20260502050903 | 40 | 330 | 0.0 | 5.0 | 0.00 | 0.00 | 0.00 | 1016.6 | |
| 20260502050403 | 40 | 329 | 0.0 | 6.0 | 0.00 | 0.00 | 0.00 | 1017.0 | |
| 20260502045903 | 40 | 314 | 0.0 | 6.0 | 0.00 | 0.00 | 0.00 | 1016.6 | |
| 20260502045424 | 40 | 303 | 0.0 | 3.0 | 0.00 | 0.00 | 0.00 | 1016.3 | |
| 20260502044903 | 40 | 315 | 0.0 | 3.0 | 0.00 | 0.00 | 0.00 | 1016.3 | |
| 20260502044403 | 40 | 294 | 1.0 | 6.0 | 0.00 | 0.00 | 0.00 | 1017.0 | |
| 20260502043903 | 40 | 308 | 0.0 | 6.0 | 0.00 | 0.00 | 0.00 | 1017.0 | |
| 20260502043403 | 40 | 289 | 0.0 | 7.0 | 0.00 | 0.00 | 0.00 | 1016.6 | |
| 20260502042924 | 40 | 308 | 1.0 | 7.0 | 0.00 | 0.00 | 0.00 | 1016.6 | |
| 20260502042403 | 40 | 292 | 0.0 | 3.0 | 0.00 | 0.00 | 0.00 | 1016.6 | |
| 20260502041924 | 40 | 298 | 0.0 | 3.0 | 0.00 | 0.00 | 0.00 | 1016.6 | |
| 20260502041403 | 41 | 287 | 0.0 | 4.0 | 0.00 | 0.00 | 0.00 | 1017.0 | |
| 20260502035903 | 40 | 275 | 0.0 | 6.0 | 0.00 | 0.00 | 0.00 | 1016.3 | |
| 20260502035403 | 40 | 287 | 0.0 | 3.0 | 0.00 | 0.00 | 0.00 | 1016.6 | |
| 20260502034925 | 40 | 274 | 0.0 | 3.0 | 0.00 | 0.00 | 0.00 | 1017.0 | |
| 20260502034403 | 40 | 293 | 0.0 | 2.0 | 0.00 | 0.00 | 0.00 | 1016.6 | |
| 20260502033903 | 40 | 251 | 0.0 | 6.0 | 0.00 | 0.00 | 0.00 | 1016.6 | |
| 20260502033424 | 40 | 224 | 0.0 | 6.0 | 0.00 | 0.00 | 0.00 | 1016.3 | |
| 20260502031925 | 41 | 301 | 0.0 | 4.0 | 0.00 | 0.00 | 0.00 | 1016.6 | |
| 20260502031445 | 41 | 314 | 0.0 | 3.0 | 0.00 | 0.00 | 0.00 | 1017.0 | |
| 20260502030903 | 41 | 315 | 0.0 | 3.0 | 0.00 | 0.00 | 0.00 | 1016.3 | |
| 20260502030403 | 41 | 345 | 0.0 | 3.0 | 0.00 | 0.00 | 0.00 | 1016.6 | |
| 20260502025903 | 41 | 292 | 0.0 | 6.0 | 0.00 | 0.00 | 0.00 | 1017.0 | |
| 20260502025403 | 41 | 247 | 0.0 | 6.0 | 0.00 | 0.00 | 0.00 | 1016.3 | |
| 20260502024903 | 41 | 258 | 0.0 | 7.0 | 0.00 | 0.00 | 0.00 | 1016.3 | |
| 20260502024424 | 42 | 269 | 0.0 | 7.0 | 0.00 | 0.00 | 0.00 | 1016.6 | |
| 20260502023903 | 42 | 247 | 0.0 | 1.0 | 0.00 | 0.00 | 0.00 | 1017.0 | |
| 20260502023403 | 42 | 203 | 0.0 | 5.0 | 0.00 | 0.00 | 0.00 | 1016.3 | |
| 20260502022903 | 42 | 269 | 0.0 | 5.0 | 0.00 | 0.00 | 0.00 | 1016.3 | |
| 20260502022424 | 43 | 225 | 0.0 | 7.0 | 0.00 | 0.00 | 0.00 | 1016.0 |